El Paso International Airport
KELP : now visible

Airfield :











YOU CAN JOIN US ON...

 
LOGIN :

Register | Disclaimer

   EN    FR    IT 

 









Legend :    VFR   Marginal VFR   IFR   Intensive IFR   Very Intensive IFR
Visi :
Ceiling :
>= 8 km
>= 3000ft
5 to 8 km
1000 to 3000 ft
1500m to 5 km
500 to 1000 ft
800 to 1500m
200 to 500 ft
< 800m
< 200 ft
Symbols :   Thunderstorms  Fog  Heavy snow  Heavy precipitations  Wind > 20 kt






- Airport Elevation : 3959 ft
- IATA code : ELP


KELP - El Paso International

CURRENT METAR :
  • 150351Z 29007KT 10SM CLR 26/M08 A2991 RMK AO2 SLP067 T02561078

EXPIRED METARs :
  • 150251Z 26010KT 10SM FEW180 OVC250 26/M08 A2990 RMK AO2 SLP065 T02561078 53008
  • 150151Z 25007KT 10SM OVC250 26/M08 A2989 RMK AO2 SLP064 T02611078

TAF KELP
Valid from the 15 at 00:00 until the 16 at 00:00 UTC


142321Z 1500/1524 25012KT P6SM BKN200
FM150600 27010KT P6SM BKN150 OVC200
FM151200 22008KT P6SM BKN150 OVC200
FM151800 25020G30KT P6SM SCT170 BKN200
KZAB FIR / North America



MET'MAP, your aeronautical weather chart ! - Copyright ORBIFLY December 2007 - Disclaimer

ORBIFLY MET'MAP TEAM :

Programming & Development : Alexandra Zaïnal
Concept & original design : Baudouin d'Aumeries
Assistance for programming : Marc-Olivier Méhu
Technical & hardware support : Manuel Goepfert

Contact : metmap@orbifly.com




SOURCES & CREDITS :

   NOAA       Earth
Advisory